Location: Newark
(34.1333°N, 7.9667°W)
Time: 21:37:30
(UTC+00:00)

N. Korean satellite - Pass Details

Date: 30 September 2021
Orbit: 450 x 495 km, 97.3° (Epoch: 23 October)

Event Time Altitude Azimuth Distance (km) Brightness Sun altitude
Rises 05:55:21 0° 7° (N) 2,547 10.3 -7.1°
Reaches altitude 10° 05:57:25 10° 3° (N) 1,671 9.4 -6.7°
Maximum altitude 06:00:58 60° 283° (WNW) 566 6.6 -6.0°
Drops below altitude 10° 06:04:31 10° 204° (SSW) 1,678 9.1 -5.2°
Sets 06:06:37 0° 200° (SSW) 2,559 10.0 -4.8°
